TimeCDT,TemperatureF,Dew PointF,Humidity,Sea Level PressureIn,VisibilityMPH,Wind Direction,Wind SpeedMPH,Gust SpeedMPH,PrecipitationIn,Events,Conditions,WindDirDegrees,DateUTC
12:15 AM,75.7,75.7,100,29.95,10.0,East,4.6,-,N/A,,Clear,100,2013-10-05 05:15:00
12:35 AM,75.4,75.4,100,29.95,10.0,East,3.5,-,N/A,,Clear,90,2013-10-05 05:35:00
12:55 AM,75.2,75.2,100,29.95,7.0,East,3.5,-,N/A,,Scattered Clouds,80,2013-10-05 05:55:00
1:15 AM,75.4,75.4,100,29.94,7.0,East,3.5,-,N/A,,Mostly Cloudy,80,2013-10-05 06:15:00
1:35 AM,74.8,74.8,100,29.94,7.0,East,3.5,-,N/A,,Scattered Clouds,90,2013-10-05 06:35:00
1:55 AM,74.7,74.7,100,29.94,7.0,East,4.6,-,N/A,,Clear,90,2013-10-05 06:55:00
2:15 AM,74.7,74.7,100,29.94,7.0,East,3.5,-,N/A,,Clear,90,2013-10-05 07:15:00
2:35 AM,74.5,74.5,100,29.93,7.0,ENE,4.6,-,N/A,,Scattered Clouds,70,2013-10-05 07:35:00
2:55 AM,74.5,74.5,100,29.93,10.0,ENE,4.6,-,N/A,,Scattered Clouds,70,2013-10-05 07:55:00
3:15 AM,74.3,74.3,100,29.93,7.0,ENE,3.5,-,N/A,,Clear,70,2013-10-05 08:15:00
3:35 AM,74.3,74.3,100,29.93,7.0,ENE,4.6,-,N/A,,Clear,70,2013-10-05 08:35:00
3:55 AM,74.3,74.3,100,29.92,10.0,ENE,4.6,-,N/A,,Clear,70,2013-10-05 08:55:00
4:15 AM,74.3,74.3,100,29.93,7.0,ENE,4.6,-,N/A,,Clear,70,2013-10-05 09:15:00
4:35 AM,74.3,74.3,100,29.93,7.0,ENE,4.6,-,N/A,,Clear,70,2013-10-05 09:35:00
4:55 AM,74.3,74.3,100,29.93,7.0,ENE,5.8,-,N/A,,Clear,70,2013-10-05 09:55:00
5:15 AM,74.3,74.3,100,29.93,7.0,ENE,5.8,-,N/A,,Clear,70,2013-10-05 10:15:00
5:35 AM,74.1,74.1,100,29.94,7.0,ENE,3.5,-,N/A,,Clear,60,2013-10-05 10:35:00
5:55 AM,73.8,73.8,100,29.94,7.0,Calm,Calm,-,N/A,,Clear,0,2013-10-05 10:55:00
6:00 AM,73.4,73.4,100,29.94,7.0,Calm,Calm,-,N/A,,Clear,0,2013-10-05 11:00:00
6:15 AM,73.6,73.6,100,29.95,7.0,NE,3.5,-,N/A,,Scattered Clouds,50,2013-10-05 11:15:00
6:35 AM,73.6,73.6,100,29.94,7.0,NE,3.5,-,N/A,,Scattered Clouds,50,2013-10-05 11:35:00
6:50 AM,73.4,73.4,100,29.95,7.0,Calm,Calm,-,N/A,,Scattered Clouds,0,2013-10-05 11:50:00
6:55 AM,73.6,73.6,100,29.95,7.0,ENE,4.6,-,N/A,,Scattered Clouds,60,2013-10-05 11:55:00
7:50 AM,75.2,75.2,100,29.95,7.0,East,5.8,-,N/A,,Scattered Clouds,90,2013-10-05 12:50:00
8:50 AM,77.0,77.0,100,29.97,10.0,East,9.2,-,N/A,,Scattered Clouds,90,2013-10-05 13:50:00
9:51 AM,80.6,75.2,84,29.96,10.0,East,8.1,-,N/A,,Mostly Cloudy,80,2013-10-05 14:51:00
10:50 AM,84.2,73.4,70,29.96,10.0,East,9.2,-,N/A,,Scattered Clouds,90,2013-10-05 15:50:00
11:51 AM,86.0,73.4,66,29.95,10.0,ESE,8.1,-,N/A,,Mostly Cloudy,120,2013-10-05 16:51:00
12:50 PM,86.0,73.4,66,29.93,10.0,East,8.1,-,N/A,,Scattered Clouds,100,2013-10-05 17:50:00
1:50 PM,87.8,73.4,62,29.91,10.0,East,4.6,-,N/A,,Scattered Clouds,100,2013-10-05 18:50:00
2:50 PM,89.6,73.4,59,29.88,10.0,ESE,6.9,-,N/A,,Scattered Clouds,110,2013-10-05 19:50:00
3:50 PM,84.2,75.2,74,29.88,10.0,ESE,15.0,-,N/A,,Mostly Cloudy,110,2013-10-05 20:50:00
4:55 PM,84.2,73.4,70,29.87,10.0,ESE,12.7,-,N/A,,Scattered Clouds,110,2013-10-05 21:55:00
5:50 PM,82.4,73.4,74,29.88,10.0,ESE,9.2,-,N/A,,Scattered Clouds,110,2013-10-05 22:50:00
6:50 PM,78.8,75.2,89,29.88,10.0,ESE,6.9,-,N/A,,Scattered Clouds,110,2013-10-05 23:50:00
7:50 PM,77.0,77.0,100,29.90,10.0,Calm,Calm,-,N/A,,Clear,0,2013-10-06 00:50:00
8:50 PM,77.0,77.0,100,29.90,10.0,Calm,Calm,-,N/A,,Clear,0,2013-10-06 01:50:00
9:50 PM,77.0,77.0,100,29.92,10.0,Calm,Calm,-,N/A,,Mostly Cloudy,0,2013-10-06 02:50:00
10:55 PM,75.7,75.7,100,29.92,10.0,ENE,3.5,-,N/A,,Scattered Clouds,70,2013-10-06 03:55:00
11:15 PM,75.6,75.6,100,29.92,10.0,Calm,Calm,-,N/A,Thunderstorm,Clear,0,2013-10-06 04:15:00
11:35 PM,75.7,75.7,100,29.92,10.0,Calm,Calm,-,N/A,,Clear,0,2013-10-06 04:35:00
11:55 PM,75.7,75.7,100,29.92,10.0,Calm,Calm,-,N/A,,Clear,0,2013-10-06 04:55:00